Weather History for KDUX - May, 2014

Change the Weather History Date:

Tuesday, May 13, 2014

  Actual Average (KBGD) Record (KBGD)
Temperature  
Mean Temperature 46 °F 67 °F  
Max Temperature 57 °F 80 °F 96 °F (2003)
Min Temperature 34 °F 54 °F 36 °F (1953)
Degree Days  
Heating Degree Days 20 2  
Month to date heating degree days 41  
Since 1 July heating degree days 3744  
Cooling Degree Days 0 4  
Month to date cooling degree days 43  
Year to date cooling degree days 87  
Moisture  
Dew Point 22 °F    
Average Humidity 41    
Maximum Humidity 72    
Minimum Humidity 23    
Precipitation  
Precipitation 0.00 in 0.10 in 2.18 in (1965)
Month to date precipitation 0.81  
Year to date precipitation 4.97  
Snow  
Snow 0.00 in - T in (1953)
Month to date snowfall  
Since 1 July snowfall  
Snow Depth -    
Sea Level Pressure  
Sea Level Pressure 30.34 in    
Wind  
Wind Speed 12 mph (North)    
Max Wind Speed 22 mph    
Max Gust Speed 32 mph    
Visibility 10 miles    
Events      
T = Trace of Precipitation, MM = Missing Value Source: NWS Daily Summary

Daily Weather History Graph

Daily Weather History Graph

Search for Another Location

Airport or City:

Trip Planner

Search our weather history database for the weather conditions in past years. The results will help you decide how hot, cold, wet, or windy it might be!

Date:

Astronomy

May. 13, 2014 Rise Set
Actual Time 6:44 AM CDT 8:45 PM CDT
Civil Twilight 6:15 AM CDT 9:13 PM CDT
Nautical Twilight 5:41 AM CDT 9:48 PM CDT
Astronomical Twilight 5:04 AM CDT 10:25 PM CDT
Moon 7:51 PM CDT (5/13) 5:58 AM CDT (5/13)
Length of Visible Light 14h 57m
Length of Day
14h 00m
Waxing Gibbous, 99% of the Moon is Illuminated
May 13
Waxing Gibbous
May 14
Full
May 21
Last Quarter
May 28
New
Jun 5
First Quarter

Hourly Weather History & Observations

Time (CDT) Temp. Windchill Dew Point Humidity Pressure Visibility Wind Dir Wind Speed Gust Speed Precip Events Conditions
12:15 AM 41.4 °F 34.0 °F 27.3 °F 57% 30.28 in 10.0 mi NNE 13.8 mph - N/A   Clear
12:35 AM 40.5 °F 34.1 °F 27.7 °F 60% 30.29 in 10.0 mi NNE 10.4 mph - N/A   Clear
12:55 AM 39.4 °F 33.8 °F 28.2 °F 64% 30.29 in 10.0 mi North 8.1 mph - N/A   Clear
1:15 AM 37.2 °F 30.6 °F 27.9 °F 69% 30.28 in 10.0 mi North 9.2 mph - N/A   Clear
1:35 AM 36.3 °F 29.5 °F 27.7 °F 71% 30.28 in 10.0 mi North 9.2 mph - N/A   Clear
1:55 AM 35.6 °F 28.0 °F 27.5 °F 72% 30.29 in 10.0 mi North 10.4 mph - N/A   Clear
2:15 AM 35.4 °F - 26.4 °F 70% 30.29 in 10.0 mi Calm Calm - N/A   Clear
2:35 AM 34.0 °F - 25.7 °F 72% 30.29 in 10.0 mi Calm Calm - N/A   Clear
2:55 AM 34.7 °F 30.6 °F 25.7 °F 70% 30.29 in 10.0 mi North 4.6 mph - N/A   Clear
3:15 AM 35.1 °F 28.6 °F 25.7 °F 69% 30.28 in 10.0 mi North 8.1 mph - N/A   Clear
3:35 AM 36.5 °F 28.7 °F 26.1 °F 66% 30.27 in 10.0 mi North 11.5 mph - N/A   Clear
3:55 AM 37.6 °F 29.1 °F 25.5 °F 62% 30.27 in 10.0 mi North 13.8 mph - N/A   Clear
4:15 AM 39.0 °F 31.0 °F 26.2 °F 60% 30.30 in 10.0 mi NNW 13.8 mph 20.7 mph N/A   Clear
4:35 AM 40.1 °F 32.7 °F 26.6 °F 59% 30.33 in 10.0 mi NW 12.7 mph 21.9 mph N/A   Clear
4:55 AM 40.1 °F 32.0 °F 26.6 °F 59% 30.30 in 10.0 mi North 15.0 mph - N/A   Clear
5:15 AM 40.1 °F 32.0 °F 26.4 °F 58% 30.30 in 10.0 mi NNW 15.0 mph - N/A   Clear
5:35 AM 40.1 °F 33.2 °F 26.4 °F 58% 30.31 in 10.0 mi NNW 11.5 mph - N/A   Clear
5:55 AM 40.1 °F 32.7 °F 26.1 °F 57% 30.32 in 10.0 mi NNW 12.7 mph - N/A   Clear
6:15 AM 40.1 °F 32.4 °F 25.7 °F 56% 30.33 in 10.0 mi NNW 13.8 mph - N/A   Clear
6:35 AM 39.6 °F 31.7 °F 25.7 °F 58% 30.34 in 10.0 mi NNW 13.8 mph - N/A   Clear
6:55 AM 38.7 °F 30.9 °F 25.7 °F 60% 30.35 in 10.0 mi North 12.7 mph - N/A   Clear
8:15 AM 39.4 °F 32.7 °F 25.0 °F 56% 30.36 in 10.0 mi NNW 10.4 mph - N/A   Clear
8:35 AM 40.6 °F 32.0 °F 24.6 °F 53% 30.37 in 10.0 mi NNW 17.3 mph 23.0 mph N/A   Clear
8:55 AM 42.8 °F 34.8 °F 24.6 °F 49% 30.38 in 10.0 mi North 17.3 mph - N/A   Clear
9:15 AM 45.0 °F 37.9 °F 23.9 °F 44% 30.39 in 10.0 mi North 16.1 mph - N/A   Clear
10:55 AM 49.6 °F - 21.4 °F 33% 30.40 in 10.0 mi North 17.3 mph 27.6 mph N/A   Clear
11:35 AM 51.3 °F - 20.8 °F 30% 30.40 in 10.0 mi North 17.3 mph 27.6 mph N/A   Clear
12:15 PM 53.2 °F - 20.8 °F 28% 30.39 in 10.0 mi North 17.3 mph 24.2 mph N/A   Clear
12:35 PM 54.0 °F - 19.9 °F 26% 30.39 in 10.0 mi North 13.8 mph 28.8 mph N/A   Clear
12:55 PM 53.8 °F - 18.7 °F 25% 30.39 in 10.0 mi North 17.3 mph 26.5 mph N/A   Clear
1:15 PM 54.3 °F - 19.4 °F 26% 30.38 in 10.0 mi NNE 20.7 mph 28.8 mph N/A   Clear
1:35 PM 55.4 °F - 19.0 °F 24% 30.38 in 10.0 mi North 17.3 mph 24.2 mph N/A   Clear
1:55 PM 55.2 °F - 19.4 °F 25% 30.37 in 10.0 mi North 16.1 mph 32.2 mph N/A   Clear
2:15 PM 56.5 °F - 19.4 °F 24% 30.37 in 10.0 mi NNW 20.7 mph 26.5 mph N/A   Clear
2:35 PM 56.5 °F - 19.2 °F 23% 30.37 in 10.0 mi North 17.3 mph 26.5 mph N/A   Clear
2:55 PM 56.3 °F - 18.9 °F 23% 30.36 in 10.0 mi NNW 16.1 mph 29.9 mph N/A   Clear
3:15 PM 57.4 °F - 19.6 °F 23% 30.35 in 10.0 mi North 21.9 mph 27.6 mph N/A   Clear
3:35 PM 56.3 °F - 19.9 °F 24% 30.35 in 10.0 mi North 18.4 mph 27.6 mph N/A   Scattered Clouds
3:55 PM 55.9 °F - 20.1 °F 25% 30.35 in 10.0 mi North 16.1 mph 27.6 mph N/A   Scattered Clouds
4:15 PM 56.1 °F - 19.4 °F 24% 30.34 in 10.0 mi North 18.4 mph 28.8 mph N/A   Clear
4:35 PM 56.8 °F - 19.9 °F 24% 30.33 in 10.0 mi North 16.1 mph 25.3 mph N/A   Clear
4:55 PM 57.0 °F - 19.6 °F 23% 30.32 in 10.0 mi North 18.4 mph 26.5 mph N/A   Clear
5:15 PM 57.2 °F - 20.1 °F 24% 30.32 in 10.0 mi North 16.1 mph 25.3 mph N/A   Scattered Clouds
5:35 PM 57.4 °F - 19.4 °F 23% 30.32 in 10.0 mi North 17.3 mph 26.5 mph N/A   Scattered Clouds
5:55 PM 56.7 °F - 19.6 °F 24% 30.33 in 10.0 mi NNW 19.6 mph 28.8 mph N/A   Scattered Clouds
6:15 PM 56.7 °F - 19.4 °F 23% 30.33 in 10.0 mi NNW 18.4 mph 26.5 mph N/A   Scattered Clouds
6:35 PM 55.6 °F - 19.2 °F 24% 30.33 in 10.0 mi North 18.4 mph 25.3 mph N/A   Scattered Clouds
7:15 PM 54.9 °F - 19.4 °F 25% 30.34 in 10.0 mi North 16.1 mph 26.5 mph N/A   Scattered Clouds
7:35 PM 55.0 °F - 18.7 °F 24% 30.34 in 10.0 mi North 20.7 mph - N/A   Scattered Clouds
7:55 PM 54.0 °F - 18.7 °F 25% 30.35 in 10.0 mi North 15.0 mph - N/A   Scattered Clouds
8:15 PM 51.4 °F - 18.0 °F 27% 30.35 in 10.0 mi North 10.4 mph - N/A   Clear
8:35 PM 51.6 °F - 18.3 °F 27% 30.35 in 10.0 mi North 8.1 mph - N/A   Scattered Clouds
8:55 PM 49.3 °F - 17.1 °F 28% 30.36 in 10.0 mi North 9.2 mph - N/A   Scattered Clouds
9:15 PM 48.2 °F - 16.9 °F 29% 30.37 in 10.0 mi Calm Calm - N/A   Clear
9:35 PM 46.4 °F - 17.4 °F 31% 30.38 in 10.0 mi Calm Calm - N/A   Clear
9:55 PM 45.5 °F - 16.7 °F 32% 30.38 in 10.0 mi Calm Calm - N/A   Scattered Clouds
10:15 PM 45.1 °F - 18.0 °F 34% 30.39 in 10.0 mi Calm Calm - N/A   Scattered Clouds
10:35 PM 44.2 °F - 17.4 °F 34% 30.40 in 10.0 mi Calm Calm - N/A   Clear
10:55 PM 41.9 °F - 19.4 °F 41% 30.41 in 10.0 mi Calm Calm - N/A   Clear
11:15 PM 41.0 °F - 19.9 °F 43% 30.41 in 10.0 mi Calm Calm - N/A   Clear
11:35 PM 40.3 °F - 19.8 °F 44% 30.41 in 10.0 mi Calm Calm - N/A   Clear
11:55 PM 39.6 °F - 19.4 °F 44% 30.41 in 10.0 mi Calm Calm - N/A   Clear